Location: Kouchibouguac National Park
(46.7962°N, 64.9642°W)
Time: 18:12:57
(UTC-04:00)

ISS - Pass Details

Date: 29 October 2019
Orbit: 412 x 421 km, 51.6° (Epoch: 12 November)

Event Time Altitude Azimuth Distance (km) Brightness Sun altitude
Exits shadow 05:36:47 35° 108° (ESE) 701 -2.2 -24.5°
Drops below altitude 10° 05:39:13 10° 73° (ENE) 1,507 0.1 -24.1°
Sets 05:41:23 0° 67° (ENE) 2,373 1.3 -23.8°
